Previsão horária em Barneveld

Hoje, 27 Outubro, Terça-feira

Tempo Temperatura Precipitação Vento Pressão Humidade
00:00 +7°C° 0 mm 5 m/s 750 mmHg 90%
01:00 +7°C° 0 mm 5 m/s 750 mmHg 91%
02:00 +7°C° 0 mm 4 m/s 750 mmHg 92%
03:00 +6°C° 0 mm 4 m/s 750 mmHg 93%
04:00 +6°C° 0 mm 5 m/s 750 mmHg 94%
05:00 +6°C° 0 mm 5 m/s 750 mmHg 94%
06:00 +6°C° 0 mm 4 m/s 751 mmHg 95%
07:00 +7°C° 0.1 mm 5 m/s 751 mmHg 93%
08:00 +7°C° 0.1 mm 6 m/s 751 mmHg 92%
09:00 +8°C° 0.1 mm 7 m/s 751 mmHg 90%
10:00 +8°C° 0 mm 7 m/s 751 mmHg 87%
11:00 +9°C° 0 mm 7 m/s 751 mmHg 83%
12:00 +10°C° 0 mm 7 m/s 751 mmHg 80%
13:00 +10°C° 0 mm 7 m/s 751 mmHg 79%
14:00 +10°C° 0 mm 7 m/s 751 mmHg 77%
15:00 +10°C° 0 mm 6 m/s 750 mmHg 75%
16:00 +10°C° 0 mm 7 m/s 750 mmHg 76%
17:00 +9°C° 0 mm 7 m/s 750 mmHg 76%
18:00 +9°C° 0 mm 8 m/s 749 mmHg 76%
19:00 +10°C° 0.1 mm 8 m/s 749 mmHg 78%
20:00 +10°C° 0.1 mm 8 m/s 749 mmHg 80%
21:00 +10°C° 0.1 mm 9 m/s 748 mmHg 82%
22:00 +10°C° 0.5 mm 7 m/s 749 mmHg 84%
23:00 +10°C° 0.5 mm 6 m/s 749 mmHg 87%

Amanhã, 28 Outubro, Quarta-feira

Tempo Temperatura Precipitação Vento Pressão Humidade
00:00 +10°C° 0.5 mm 5 m/s 749 mmHg 90%
01:00 +9°C° 0.1 mm 5 m/s 750 mmHg 89%
02:00 +10°C° 0.1 mm 4 m/s 750 mmHg 89%
03:00 +9°C° 0.1 mm 3 m/s 751 mmHg 88%
04:00 +8°C° 0 mm 4 m/s 751 mmHg 88%
05:00 +8°C° 0 mm 4 m/s 752 mmHg 87%
06:00 +7°C° 0 mm 4 m/s 752 mmHg 86%
07:00 +8°C° 0 mm 5 m/s 753 mmHg 85%
08:00 +9°C° 0 mm 6 m/s 753 mmHg 84%
09:00 +10°C° 0 mm 7 m/s 753 mmHg 83%
10:00 +10°C° 0.2 mm 7 m/s 753 mmHg 82%
11:00 +10°C° 0.2 mm 8 m/s 753 mmHg 80%
12:00 +10°C° 0.2 mm 8 m/s 753 mmHg 78%
13:00 +10°C° 0.5 mm 8 m/s 753 mmHg 80%
14:00 +10°C° 0.5 mm 7 m/s 753 mmHg 82%
15:00 +9°C° 0.5 mm 7 m/s 753 mmHg 84%
16:00 +9°C° 1.1 mm 7 m/s 753 mmHg 86%
17:00 +9°C° 1.1 mm 7 m/s 753 mmHg 87%
18:00 +9°C° 1.1 mm 6 m/s 753 mmHg 89%
19:00 +9°C° 1.7 mm 6 m/s 753 mmHg 89%
20:00 +9°C° 1.7 mm 6 m/s 753 mmHg 89%
21:00 +9°C° 1.7 mm 6 m/s 753 mmHg 89%
22:00 +8°C° 0.3 mm 6 m/s 754 mmHg 88%
23:00 +8°C° 0.3 mm 6 m/s 754 mmHg 88%

Depois de amanhã, 29 Outubro, Quinta-feira

Tempo Temperatura Precipitação Vento Pressão Humidade
00:00 +8°C° 0.3 mm 5 m/s 754 mmHg 87%
01:00 +8°C° 0.2 mm 5 m/s 755 mmHg 87%
02:00 +7°C° 0.2 mm 5 m/s 755 mmHg 86%
03:00 +7°C° 0.2 mm 5 m/s 756 mmHg 86%
04:00 +7°C° 0.1 mm 5 m/s 756 mmHg 86%
05:00 +6°C° 0.1 mm 4 m/s 757 mmHg 86%
06:00 +6°C° 0.1 mm 4 m/s 758 mmHg 85%
07:00 +7°C° 0 mm 4 m/s 758 mmHg 82%
08:00 +8°C° 0 mm 4 m/s 759 mmHg 79%
09:00 +9°C° 0 mm 5 m/s 760 mmHg 76%
10:00 +10°C° 0 mm 5 m/s 760 mmHg 73%
11:00 +10°C° 0 mm 5 m/s 761 mmHg 70%
12:00 +12°C° 0 mm 5 m/s 761 mmHg 67%
13:00 +12°C° 0 mm 5 m/s 761 mmHg 70%
14:00 +11°C° 0 mm 4 m/s 762 mmHg 74%
15:00 +11°C° 0 mm 4 m/s 762 mmHg 77%
16:00 +11°C° 0.3 mm 4 m/s 762 mmHg 82%
17:00 +11°C° 0.3 mm 4 m/s 761 mmHg 86%
18:00 +10°C° 0.3 mm 4 m/s 761 mmHg 90%
19:00 +10°C° 0.6 mm 5 m/s 761 mmHg 90%
20:00 +10°C° 0.6 mm 6 m/s 761 mmHg 91%
21:00 +11°C° 0.6 mm 7 m/s 761 mmHg 92%
22:00 +11°C° 0.1 mm 7 m/s 761 mmHg 91%
23:00 +11°C° 0.1 mm 7 m/s 761 mmHg 90%

30 Outubro, Sexta-feira

Tempo Temperatura Precipitação Vento Pressão Humidade
00:00 +13°C° 0.1 mm 6 m/s 761 mmHg 90%
01:00 +13°C° 0 mm 6 m/s 761 mmHg 90%
02:00 +13°C° 0 mm 6 m/s 761 mmHg 90%
03:00 +13°C° 0 mm 6 m/s 761 mmHg 90%
04:00 +13°C° 0.1 mm 6 m/s 761 mmHg 90%
05:00 +13°C° 0.1 mm 6 m/s 761 mmHg 90%
06:00 +13°C° 0.1 mm 6 m/s 762 mmHg 89%
07:00 +12°C° 0 mm 7 m/s 762 mmHg 88%
08:00 +12°C° 0 mm 7 m/s 762 mmHg 87%
09:00 +14°C° 0 mm 7 m/s 762 mmHg 86%
10:00 +14°C° 0 mm 7 m/s 762 mmHg 86%
11:00 +14°C° 0 mm 7 m/s 762 mmHg 87%
12:00 +14°C° 0 mm 6 m/s 763 mmHg 87%
13:00 +14°C° 0 mm 6 m/s 763 mmHg 86%
14:00 +14°C° 0 mm 6 m/s 763 mmHg 86%
15:00 +14°C° 0 mm 6 m/s 764 mmHg 86%
16:00 +14°C° 0.1 mm 5 m/s 764 mmHg 86%
17:00 +14°C° 0.1 mm 5 m/s 764 mmHg 86%
18:00 +14°C° 0.1 mm 5 m/s 764 mmHg 87%
19:00 +14°C° 0 mm 5 m/s 765 mmHg 87%
20:00 +14°C° 0 mm 4 m/s 765 mmHg 87%
21:00 +13°C° 0 mm 4 m/s 765 mmHg 87%
22:00 +13°C° 0 mm 4 m/s 765 mmHg 88%
23:00 +12°C° 0 mm 4 m/s 765 mmHg 89%

31 Outubro, Sábado

Tempo Temperatura Precipitação Vento Pressão Humidade
00:00 +12°C° 0 mm 4 m/s 765 mmHg 90%
01:00 +12°C° 0 mm 4 m/s 765 mmHg 88%
02:00 +12°C° 0 mm 4 m/s 764 mmHg 85%
03:00 +12°C° 0 mm 4 m/s 764 mmHg 83%
04:00 +12°C° 0 mm 4 m/s 764 mmHg 85%
05:00 +11°C° 0 mm 4 m/s 764 mmHg 87%
06:00 +10°C° 0 mm 4 m/s 764 mmHg 90%
07:00 +10°C° 0 mm 5 m/s 764 mmHg 88%
08:00 +10°C° 0 mm 5 m/s 764 mmHg 85%
09:00 +12°C° 0 mm 5 m/s 764 mmHg 83%
10:00 +13°C° 0 mm 5 m/s 763 mmHg 79%
11:00 +14°C° 0 mm 6 m/s 763 mmHg 75%
12:00 +15°C° 0 mm 6 m/s 763 mmHg 72%
13:00 +15°C° 0 mm 5 m/s 763 mmHg 72%
14:00 +15°C° 0 mm 5 m/s 763 mmHg 73%
15:00 +15°C° 0 mm 5 m/s 762 mmHg 73%
16:00 +14°C° 0 mm 4 m/s 763 mmHg 75%
17:00 +14°C° 0 mm 4 m/s 763 mmHg 76%
18:00 +13°C° 0 mm 4 m/s 763 mmHg 77%
19:00 +13°C° 0 mm 4 m/s 763 mmHg 77%
20:00 +13°C° 0 mm 4 m/s 763 mmHg 77%
21:00 +14°C° 0 mm 4 m/s 763 mmHg 77%
22:00 +13°C° 0 mm 4 m/s 763 mmHg 79%
23:00 +13°C° 0 mm 4 m/s 763 mmHg 81%

1 Novembro, Domingo

Tempo Temperatura Precipitação Vento Pressão Humidade
00:00 +13°C° 0 mm 4 m/s 763 mmHg 83%
01:00 +12°C° 0 mm 4 m/s 762 mmHg 85%
02:00 +12°C° 0 mm 4 m/s 762 mmHg 87%
03:00 +12°C° 0 mm 5 m/s 762 mmHg 88%
04:00 +12°C° 0 mm 5 m/s 762 mmHg 89%
05:00 +11°C° 0 mm 6 m/s 761 mmHg 89%
06:00 +11°C° 0 mm 6 m/s 761 mmHg 89%
07:00 +13°C° 0 mm 6 m/s 761 mmHg 87%
08:00 +13°C° 0 mm 6 m/s 761 mmHg 85%
09:00 +14°C° 0 mm 7 m/s 761 mmHg 83%
10:00 +14°C° 0 mm 7 m/s 761 mmHg 82%
11:00 +14°C° 0 mm 7 m/s 761 mmHg 82%
12:00 +14°C° 0 mm 7 m/s 761 mmHg 81%
13:00 +15°C° 0 mm 7 m/s 761 mmHg 81%
14:00 +15°C° 0 mm 7 m/s 761 mmHg 81%
15:00 +15°C° 0 mm 6 m/s 760 mmHg 80%
16:00 +15°C° 0 mm 7 m/s 760 mmHg 80%
17:00 +15°C° 0 mm 7 m/s 760 mmHg 79%
18:00 +15°C° 0 mm 7 m/s 760 mmHg 79%
19:00 +15°C° 0 mm 7 m/s 760 mmHg 78%
20:00 +15°C° 0 mm 6 m/s 760 mmHg 77%
21:00 +15°C° 0 mm 6 m/s 760 mmHg 77%
22:00 +15°C° 0 mm 6 m/s 760 mmHg 76%
23:00 +15°C° 0 mm 6 m/s 760 mmHg 76%
Mostrar mais